IZ0CGP Weather Reports


Display with metric or nautical units.
time (UTC)temp
F
wind
direction
speed
MPH
gust
MPH
rain 1hr
in
rain 24hr
in
rain mn
in
humidity
%
barometer
mb
20260503225503 54 73 0.0 0.0 0.00 0.00 0.00 82 1019.7
20260503224437 55 73 0.0 0.0 0.00 0.00 0.00 81 1020.7
20260503223423 55 73 0.0 0.0 0.00 0.00 0.00 81 1020.7
20260503222407 56 73 0.0 0.0 0.00 0.00 0.00 82 1020.7
20260503220346 56 73 0.0 0.0 0.00 0.00 0.00 78 1019.7
20260503215329 57 46 0.0 0.0 0.00 0.00 0.00 78 1019.7
20260503213309 57 75 0.0 0.0 0.00 0.00 0.00 76 1019.7
20260503212234 57 70 0.0 0.0 0.00 0.00 0.00 75 1019.7
20260503210203 57 137 0.0 0.0 0.00 0.00 0.00 74 1019.7
20260503203120 58 137 2.0 5.0 0.00 0.00 0.00 74 1019.7
20260503195059 59 151 0.0 3.0 0.00 0.00 0.00 72 1018.7
20260503194043 60 164 0.0 4.0 0.00 0.00 0.00 72 1018.7
20260503193038 60 164 0.0 2.0 0.00 0.00 0.00 71 1018.7
20260503192028 61 162 2.0 4.0 0.00 0.00 0.00 70 1018.7
20260503191024 61 167 0.0 6.0 0.00 0.00 0.00 69 1018.7
20260503190003 62 166 1.0 6.0 0.00 0.00 0.00 68 1018.7
20260503184947 63 176 2.0 8.0 0.00 0.00 0.00 67 1018.7
20260503182939 64 218 3.0 9.0 0.00 0.00 0.00 63 1017.7
20260503180920 66 218 4.0 10.0 0.00 0.00 0.00 60 1017.7
20260503175913 67 209 4.0 8.0 0.00 0.00 0.00 59 1017.7
20260503174906 67 181 4.0 8.0 0.00 0.00 0.00 56 1017.7
20260503172847 69 200 2.0 7.0 0.00 0.00 0.00 53 1017.7
20260503171843 70 0 0.0 7.0 0.00 0.00 0.00 52 1017.7
20260503170838 70 227 2.0 7.0 0.00 0.00 0.00 52 1017.7
20260503130550 72 250 9.0 13.0 0.00 0.00 0.00 48 1018.7
20260503110411 72 335 0.0 8.0 0.00 0.00 0.00 49 1019.7
20260503090223 66 132 0.0 3.0 0.00 0.00 0.00 56 1020.7
20260503081156 65 84 0.0 1.0 0.00 0.00 0.00 61 1021.7
20260503080140 64 88 0.0 0.0 0.00 0.00 0.00 62 1021.7
20260503072108 60 120 0.0 2.0 0.00 0.00 0.00 64 1021.7
20260503071051 59 88 0.0 1.0 0.00 0.00 0.00 64 1021.7
20260503054910 51 279 0.0 0.0 0.00 0.00 0.00 78 1021.7
20260503053902 48 0 0.0 2.0 0.00 0.00 0.00 82 1021.7
20260503052855 47 292 1.0 2.0 0.00 0.00 0.00 83 1021.7
20260503051842 46 253 0.0 2.0 0.00 0.00 0.00 84 1021.7
20260503044810 44 298 0.0 2.0 0.00 0.00 0.00 87 1021.7
20260503043750 43 288 0.0 0.0 0.00 0.00 0.00 87 1021.7
20260503042735 43 162 0.0 0.0 0.00 0.00 0.00 88 1021.7
20260503041728 43 162 0.0 0.0 0.00 0.00 0.00 88 1021.7
20260503040712 43 162 0.0 0.0 0.00 0.00 0.00 88 1021.7
20260503035658 43 162 0.0 1.0 0.00 0.00 0.00 87 1021.7
20260503034629 44 179 0.0 1.0 0.00 0.00 0.00 86 1021.7
20260503033621 45 266 1.0 2.0 0.00 0.00 0.00 86 1021.7
20260503032618 45 250 0.0 0.0 0.00 0.00 0.00 86 1020.7
20260503030554 45 231 0.0 0.0 0.00 0.00 0.00 86 1021.7
20260503025529 45 179 0.0 0.0 0.00 0.00 0.00 87 1020.7
20260503023457 45 179 0.0 0.0 0.00 0.00 0.00 86 1021.7
20260503021407 46 179 0.0 0.0 0.00 0.00 0.00 85 1021.7
20260503020349 46 179 0.0 0.0 0.00 0.00 0.00 85 1021.7
20260503015343 46 179 0.0 0.0 0.00 0.00 0.00 85 1021.7
20260503014330 46 179 0.0 0.0 0.00 0.00 0.00 85 1021.7
20260503013311 46 179 0.0 0.0 0.00 0.00 0.00 84 1021.7
20260503012305 46 179 0.0 0.0 0.00 0.00 0.00 83 1021.7
20260503011259 46 179 0.0 0.0 0.00 0.00 0.00 84 1021.7
20260503010253 47 179 0.0 0.0 0.00 0.00 0.00 83 1021.7
20260503005253 47 252 0.0 0.0 0.00 0.00 0.00 81 1021.7
20260503004226 48 252 0.0 0.0 0.00 0.00 0.00 81 1021.7
20260503003222 48 252 0.0 0.0 0.00 0.00 0.00 80 1021.7
20260503002154 48 252 0.0 0.0 0.00 0.00 0.00 81 1021.7
20260502235122 49 252 0.0 0.0 0.00 0.00 0.00 79 1022.7
20260502234119 49 252 0.0 0.0 0.00 0.00 0.00 79 1021.7
20260502233101 49 252 0.0 0.0 0.00 0.00 0.00 78 1021.7
20260502231053 50 252 0.0 0.0 0.00 0.00 0.00 78 1022.7
20260502230032 50 252 0.0 2.0 0.00 0.00 0.00 78 1022.7